Date,TemperatureHighF,TemperatureAvgF,TemperatureLowF,DewpointHighF,DewpointAvgF,DewpointLowF,HumidityHigh,HumidityAvg,HumidityLow,PressureMaxIn,PressureMinIn,WindSpeedMaxMPH,WindSpeedAvgMPH,GustSpeedMaxMPH,PrecipitationSumIn
2013-1-1,44.1,24.8,17.8,43.8,20.0,12.1,99,82,76,29.95,29.77,6,0,6,0.01
2013-1-2,33.8,21.2,12.6,13.4,10.2,7.6,86,63,41,30.00,29.93,6,1,6,0.00
2013-1-3,39.0,30.4,16.0,26.3,21.6,9.7,79,70,60,30.10,29.93,14,7,14,0.02
2013-1-4,32.5,26.8,23.0,23.2,21.9,20.3,92,82,64,30.16,30.06,8,6,8,0.00
2013-1-5,37.8,32.0,25.0,25.9,24.5,22.6,92,74,62,30.06,30.02,17,8,17,0.00
2013-1-6,80.8,32.9,26.6,69.3,12.9,-22.5,74,53,10,30.11,29.85,19,7,19,0.09
2013-1-10,60.4,57.4,54.1,60.2,57.1,53.9,99,99,99,29.70,29.58,18,7,18,0.09
2013-1-11,63.1,58.8,54.3,60.9,51.7,48.0,99,78,63,29.67,29.56,18,11,20,0.33
2013-1-12,72.0,59.6,52.3,60.0,56.6,12.5,99,91,10,29.69,29.34,102,6,102,0.66
2013-1-13,33.3,26.2,23.9,30.5,23.0,-17.6,99,89,10,29.99,29.69,49,1,49,1.32
2013-1-14,25.0,22.7,18.5,20.7,19.2,15.0,92,86,77,30.17,30.02,0,0,0,0.00
2013-1-15,36.0,22.2,20.5,32.2,20.2,-26.6,95,92,10,30.08,29.83,0,0,0,0.00
2013-1-16,34.5,31.5,25.7,26.4,24.2,-18.9,82,75,10,29.84,29.76,9,6,9,0.01
2013-1-17,39.7,32.9,29.1,27.0,25.0,23.4,79,73,60,30.17,30.00,12,5,12,0.00
2013-1-18,45.3,40.8,39.4,28.5,26.5,25.1,59,56,51,30.05,29.91,20,11,20,0.00
2013-1-19,57.6,49.5,38.8,38.6,33.8,-8.0,76,57,10,29.93,29.66,32,16,34,0.76
2013-1-20,45.7,45.3,44.6,37.9,37.2,35.9,74,73,70,29.80,29.78,12,9,12,0.00
2013-1-21,25.7,20.9,16.2,16.3,7.7,-0.6,67,56,46,30.06,29.97,17,8,17,0.00
2013-1-22,14.5,13.0,11.1,1.7,-1.2,-2.8,57,52,49,30.13,30.06,32,8,32,0.00
2013-1-23,80.4,34.7,15.3,63.3,20.6,11.0,83,57,39,30.05,29.84,14,8,14,0.00
2013-1-24,31.6,22.7,16.2,17.3,8.7,5.7,66,55,36,30.30,29.98,15,10,15,0.38
2013-1-25,39.2,32.7,31.6,23.2,21.7,20.1,69,64,46,29.91,29.83,13,9,14,0.00
2013-1-26,39.6,29.8,23.0,22.8,17.8,-18.7,75,61,10,30.09,29.91,10,3,10,0.00
2013-1-27,45.0,33.6,14.4,43.8,29.8,9.0,99,86,70,30.05,29.77,19,7,19,0.22
2013-1-28,57.9,54.9,34.5,57.7,54.1,34.3,99,97,77,29.79,29.69,21,8,21,0.20
2013-1-29,68.0,62.7,56.3,60.5,58.3,56.0,99,86,75,29.69,29.11,59,23,103,11.74
2013-1-30,51.6,36.5,29.7,51.3,29.5,18.0,99,76,61,29.56,29.13,35,22,35,0.13
2013-1-31,34.0,25.9,15.1,29.5,17.7,8.1,98,71,57,30.00,29.57,74,17,74,0.00
2013-2-1,42.8,16.8,7.9,34.4,6.4,-35.6,98,64,10,30.21,30.00,101,9,101,5.88
2013-2-2,41.2,31.1,23.2,26.2,20.8,14.1,88,66,49,30.00,29.75,31,9,31,0.02
2013-2-3,34.5,29.5,25.3,28.5,20.3,17.1,99,69,53,29.87,29.70,25,8,25,0.00
2013-2-4,48.4,34.2,23.9,38.7,22.1,-13.7,88,68,10,29.80,29.52,15,8,15,0.01
2013-2-7,73.0,55.4,46.6,50.6,48.7,36.6,95,80,44,29.69,29.55,12,6,12,27.22
2013-2-8,41.9,39.4,36.9,39.2,24.5,-14.8,91,70,10,29.80,29.67,14,13,14,0.00
2013-2-9,41.4,40.3,39.2,30.9,18.1,-12.2,71,51,10,29.87,29.83,11,7,11,96.43
2013-2-11,51.1,46.3,40.3,30.2,27.7,26.2,57,48,39,29.85,29.74,27,11,27,0.00
2013-2-12,50.9,40.4,31.1,34.4,28.1,-10.3,81,63,10,29.87,29.62,8,3,8,0.02
2013-2-13,43.9,37.2,32.5,34.4,32.0,29.1,97,82,69,29.63,29.56,11,5,11,0.04
2013-2-14,57.4,45.1,35.1,37.3,33.7,-12.0,99,69,10,29.75,29.57,21,10,21,4.54
2013-2-15,40.8,35.7,28.8,32.6,23.2,17.4,82,61,43,29.93,29.77,21,9,21,0.00
2013-2-16,34.3,32.0,27.9,12.9,11.4,9.9,52,42,36,29.88,29.87,16,8,16,0.00
2013-2-18,49.3,48.9,48.2,47.4,47.3,47.1,97,94,92,29.38,29.32,23,18,23,0.02
2013-2-19,36.9,27.9,24.3,32.2,18.9,15.2,83,69,58,29.97,29.57,23,11,23,0.05
2013-2-20,28.2,25.9,18.3,15.4,13.6,10.0,71,59,55,30.08,29.96,9,6,10,0.00
2013-3-5,32.9,32.4,31.1,32.7,31.0,25.7,99,95,80,29.64,29.50,28,23,28,0.06
2013-3-8,52.0,44.1,35.6,31.8,27.7,-3.4,80,55,10,30.18,29.99,102,14,102,0.06
2013-3-9,58.5,44.9,21.0,35.3,31.0,12.4,78,60,41,29.98,29.74,11,7,11,0.38
2013-8-30,87.8,86.4,86.0,79.3,78.6,78.4,78,78,76,29.93,29.93,5,4,5,0.00
2013-8-31,99.3,91.6,83.7,83.8,80.6,77.2,94,72,50,29.94,29.81,14,7,14,0.00
2013-9-1,64.2,64.2,64.2,63.9,63.9,63.9,99,99,99,29.87,29.87,7,7,7,0.00